Regional Weather Roundup
Issued by NWS Newport/Morehead, NC

Home | Current Version | Previous Version | Text Only | Print | Product List | Glossary On
Versions: 1 2 3 4 5 6 7 8 9 10 11 12 13 14 15 16 17 18 19 20 21 22 23 24 25 26 27 28 29 30 31 32 33 34 35 36 37 38 39 40 41 42 43 44 45 46 47 48 49 50
000
ASUS42 KMHX 060928
RWRMHX
WEATHER ROUNDUP FOR EASTERN NORTH CAROLINA
NATIONAL WEATHER SERVICE NEWPORT/MOREHEAD CITY NC
400 AM EST FRI MAR 06 2015

NOTE: "FAIR" INDICATES FEW OR NO CLOUDS BELOW 12,000 FEET
WITH NO SIGNIFICANT WEATHER AND/OR OBSTRUCTIONS TO VISIBILITY

NCZ015>017-031-032-045>047-102-103-061000-
NORTH COAST

CITY           SKY/WX    TMP DP  RH WIND       PRES   REMARKS
EDENTON        CLOUDY    28  23  79 N12G20    30.40R WCI  18
ELIZABETH CITY CLOUDY    27  21  80 N20G25    30.41R WCI  13
KITTY HAWK     CLOUDY    28  23  81 N12G24    30.36R WCI  18
MANTEO         CLOUDY    28  22  77 N22G30    30.38R WCI  14

$$

NCZ045>047-081-094-103-104-061000-
CENTRAL COAST

CITY           SKY/WX    TMP DP  RH WIND       PRES   REMARKS
FRISCO         CLOUDY    30  27  88 N18G35    30.33R WCI  18
SWANQUARTER      N/A     28 N/A N/A N9G30     30.33R

$$

NCZ095-097-098-100-101-061000-
SOUTHERN COAST

CITY           SKY/WX    TMP DP  RH WIND       PRES   REMARKS
BEAUFORT       CLOUDY    33  31  92 MISG      30.32R
CEDAR ISLAND     N/A    N/A N/A N/A N25G33    30.39R
JACKSONVILLE   CLOUDY    32  29  88 N15       30.34R
PINEY ISLAND     N/A    N/A N/A N/A MISG      30.33R
WILMINGTON     CLOUDY    34  28  79 N24G32    30.32R


$$

NCZ011>013-027>030-043-044-078>080-089-090>093-098-061000-
COASTAL PLAIN

CITY           SKY/WX    TMP DP  RH WIND       PRES   REMARKS
AHOSKIE        CLOUDY    26  16  66 N13G20    30.42R WCI  14
CLINTON        CLOUDY    33  26  75 N9        30.37R
ELIZABETHTOWN  CLOUDY    34  27  77 N8        30.34R
GOLDSBORO      CLOUDY    31  29  94 N15G30    30.35R WCI  20
GREENVILLE     CLOUDY    30  19  64 N18G29    30.39R WCI  18
HAVELOCK       CLOUDY    33  27  78 N21G32    30.34R
KENANSVILLE    CLOUDY    31  25  77 N13G21    30.38R
KINSTON        MOCLDY    31  24  75 N20G26    30.37S WCI  19
NEW BERN       CLOUDY    32  24  72 N17G28    30.36R
RICHLANDS      CLOUDY    30  23  74 N10G23    30.36R
ROCKY MOUNT    CLOUDY    28  21  75 N16       30.40R WCI  16
WASHINGTON     CLOUDY    29  21  72 N14G20    30.38R WCI  18
WHITEVILLE     CLOUDY    35  28  77 N6        30.32R

$$

AMZ130-135-150-152-154-156-158-170-250-252-270-ANZ085-086-088-633-658-670-061000-
MARINE OBSERVATIONS

STATION/POSITION TIME  TEMP    WIND        PRES    WAVE   SWELL
                       AIR SEA DIR/SP/G            HT/PER HT/PER
                 (UTC) (F)     (DEG/KT/KT) (MB)    (FT/S) (FT/S)
CHESAPEAKE LIGHT 0900   26      10/ 30/ 32 1029.3
64 E VA BEACH    0850   34 53  360/ 27/ 33 1026.1   12/ 8   8/ 8
DUCK             0900   28 36   10/ 26/ 33 1027.2
2 E DUCK         0811      35                N/A     9/ 8   2/11
10 NE DUCK       0822      37                N/A    10/ 8   2/11
OREGON INLET     0900   29 40  360/ 21/ 30 1027.7
HATTERAS CG      0900      47   10/ 29/ 35 1026.9
CAPE LOOKOUT     0900           10/ 19/ 25 1025.9
BEAUFORT LAB     0900   33 50   20/ 17/ 22 1025.4
27 SE WRIGHTSVLE NOT AVBL
5 SE WRIGHTSVLE  NOT AVBL
225 S CAPE HAT   0850   74 72  240/ 19/ 25 1017.9    8/ 7   3/10
41 SE CHARLESTON 0850   47 68   30/ 29/ 37 1022.5   10/ 7

$$



USA.gov is the U.S. government's official web portal to all federal, state and local government web resources and services.